星链-3820 (STARLINK-3820 )

导读

STARLINK-3820是美国SpaceX公司星链(Starlink)项目的低轨通信卫星,于2022年4月29日发射升空,属于星链V1.5批次卫星。 它运行在约550公里低地球轨道,配备相控阵天线与激光星间链路,依托星链低轨星座的低时延优势,可支持全球偏远地区高速宽带接入,单颗卫星可提供高带宽通信服务,是星链全球互联网星座部署的重要组成部分,推进了星链网络覆盖范围与服务能力的扩展。

基本信息
目录编号:
52364
目录名称:
STARLINK-3820
国际标识:
2022-045AK
轨道中心:
EARTH
卫星名称:
星链-3820
卫星全名:
星链-3820 (STARLINK-3820 )
卫星状态:
在轨 (已飞行1510 天)
发射日期:
2022-04-29 UTC
国别 :
美国 (US)
星等 :
--
轨道信息
数据来源 国际轨道数据 AOE轨道数据
星历时间 2026-06-17T09:33:07+0800
13小时前
查看轨道信息
2026-06-17T02:00:00+0800
20小时前
查看轨道信息
半长轴 6917.911km 6917.905km
偏心率 0.0001389 0.0001261
轨道倾角 53.162° 53.161°
近地点辐角 91.732° 88.012°
升交点赤经 102.829° 104.244°
平近点角 268.383° 1.965°
近地点 538.813km 538.895km
远地点 540.735km 540.641km
周期 95.438分钟 95.438分钟
每日圈数 15.088301 15.088321
详细信息
固有亮度:
5
最大亮度:
2.5
卫星平台:
Starlink v1.5
覆盖范围:
全球
运营商:
太空探索技术公司
运营商所在国:
美国
制造商(研发单位):
太空探索技术公司
制造商所在国:
美国
使用方式:
暂无
卫星简介
星链(Starlink)计划是由太空探索技术公司(SpaceX)提出的一个巨型低轨卫星互联网星座项目,计划在2019年至2024年间在太空搭建由约1.2万颗卫星组成的“星链”网络,其中1584颗将部署在地球上空550千米处的近地轨道,并从2020年开始工作。该卫星仍在工作。
2D轨道图
3D轨道图
轨道高度分析图
轨道倾角分析图
轨道综合分析图
查看轨道综合分析图